Laramie, WY

1:42 AM MDT on April 22, 2018 (GMT -0600)
Laramie Regional

Weather History for KLAR - October, 2010

Change the Weather History Date:

Wednesday, October 6, 2010

  Actual Average Record
Temperature  
Mean Temperature 55 °F 45 °F  
Max Temperature 66 °F 60 °F 77 °F (1975)
Min Temperature 44 °F 31 °F 15 °F (1952)
Degree Days  
Heating Degree Days 10 20  
Month to date heating degree days 60 113  
Since 1 July heating degree days 424 638  
Cooling Degree Days 0 0  
Month to date cooling degree days 0 0  
Year to date cooling degree days 73 67  
Growing Degree Days 5 (Base 50)    
Moisture  
Dew Point 43 °F    
Average Humidity 65    
Maximum Humidity 86    
Minimum Humidity 44    
Precipitation  
Precipitation T in 0.02 in 0.87 in (2015)
Month to date precipitation T 0.18  
Year to date precipitation 8.60 9.44  
Sea Level Pressure  
Sea Level Pressure 30.27 in    
Wind  
Wind Speed 13 mph (SE)    
Max Wind Speed 29 mph    
Max Gust Speed 35 mph    
Visibility 10 miles    
Events      
T = Trace of Precipitation, MM = Missing Value Source: NWS Daily Summary

Daily Weather History Graph

Daily Weather History Graph

Search for Another Location

Airport or City:

Astronomy

Oct. 06, 2010 Rise Set
Actual Time 7:04 AM MDT 6:36 PM MDT
Civil Twilight 6:37 AM MDT 7:03 PM MDT
Nautical Twilight 6:05 AM MDT 7:35 PM MDT
Astronomical Twilight 5:32 AM MDT 8:07 PM MDT
Moon 5:44 AM MDT (10/6) 5:40 PM MDT (10/6)
Length of Visible Light 12h 26m
Length of Day
11h 31m
Waning Crescent, 2% of the Moon is Illuminated
Oct 6
Waning Crescent
Oct 7
New
Oct 14
First Quarter
Oct 22
Full
Oct 30
Last Quarter

Hourly Weather History & Observations

Time (MDT) Temp. Windchill Dew Point Humidity Pressure Visibility Wind Dir Wind Speed Gust Speed Precip Events Conditions
12:53 AM 57.0 °F - 37.0 °F 47% 30.14 in 10.0 mi ENE 6.9 mph - N/A   Overcast
1:53 AM 54.0 °F - 39.0 °F 57% 30.16 in 10.0 mi ENE 16.1 mph - 0.00 in   Overcast
2:53 AM 51.1 °F - 41.0 °F 68% 30.17 in 10.0 mi ENE 19.6 mph 24.2 mph N/A   Overcast
3:37 AM 50.0 °F - 42.8 °F 76% 30.49 in 10.0 mi Variable 5.8 mph - N/A   Mostly Cloudy
3:53 AM 50.0 °F - 42.1 °F 74% 30.22 in 10.0 mi Variable 6.9 mph 18.4 mph N/A   Overcast
4:30 AM 48.2 °F - 42.8 °F 82% 30.47 in 10.0 mi East 6.9 mph - N/A   Mostly Cloudy
4:53 AM 48.9 °F - 42.1 °F 77% 30.22 in 10.0 mi ENE 4.6 mph - N/A   Mostly Cloudy
5:06 AM 48.2 °F - 42.8 °F 82% 30.48 in 10.0 mi SE 3.5 mph - N/A   Mostly Cloudy
5:53 AM 48.0 °F - 42.1 °F 80% 30.25 in 10.0 mi SE 5.8 mph - N/A   Overcast
6:25 AM 46.4 °F - 42.8 °F 87% 30.49 in 10.0 mi Calm Calm - N/A   Scattered Clouds
6:46 AM 46.4 °F 44.3 °F 42.8 °F 87% 30.49 in 10.0 mi South 4.6 mph - N/A   Mostly Cloudy
6:53 AM 46.0 °F 44.8 °F 41.0 °F 83% 30.27 in 10.0 mi SW 3.5 mph - N/A   Mostly Cloudy
7:53 AM 46.0 °F - 41.0 °F 83% 30.28 in 10.0 mi Calm Calm - N/A   Overcast
8:53 AM 50.0 °F - 43.0 °F 77% 30.30 in 10.0 mi SSE 9.2 mph - N/A   Overcast
9:26 AM 50.0 °F - 42.8 °F 76% 30.52 in 10.0 mi South 13.8 mph - N/A   Overcast
9:53 AM 50.0 °F - 44.1 °F 80% 30.31 in 10.0 mi South 13.8 mph - N/A   Overcast
10:53 AM 51.1 °F - 44.1 °F 77% 30.29 in 10.0 mi South 16.1 mph - N/A   Overcast
11:53 AM 53.1 °F - 45.0 °F 74% 30.27 in 10.0 mi SSE 18.4 mph 24.2 mph N/A   Overcast
12:39 PM 55.4 °F - 44.6 °F 67% 30.47 in 10.0 mi SSE 19.6 mph - N/A   Overcast
12:53 PM 57.9 °F - 45.0 °F 62% 30.20 in 10.0 mi SSE 20.7 mph 25.3 mph N/A   Overcast
1:12 PM 57.2 °F - 44.6 °F 63% 30.45 in 10.0 mi SSE 21.9 mph 28.8 mph N/A   Scattered Clouds
1:53 PM 60.1 °F - 44.1 °F 55% 30.17 in 10.0 mi SSE 18.4 mph 27.6 mph N/A   Partly Cloudy
2:53 PM 63.0 °F - 43.0 °F 48% 30.12 in 10.0 mi SSE 23.0 mph 33.4 mph N/A   Clear
3:53 PM 64.9 °F - 42.1 °F 43% 30.09 in 10.0 mi SE 20.7 mph - N/A   Clear
4:53 PM 63.0 °F - 42.1 °F 46% 30.09 in 10.0 mi SE 19.6 mph 32.2 mph N/A   Clear
5:53 PM 57.9 °F - 43.0 °F 58% 30.12 in 10.0 mi SE 18.4 mph 28.8 mph N/A   Overcast
6:53 PM 53.1 °F - 44.1 °F 71% 30.16 in 10.0 mi SSE 15.0 mph - N/A   Clear
7:53 PM 50.0 °F - 44.1 °F 80% 30.20 in 10.0 mi SE 12.7 mph - N/A   Clear
8:53 PM 50.0 °F - 43.0 °F 77% 30.17 in 10.0 mi SSE 16.1 mph - N/A   Clear
9:53 PM 48.9 °F - 44.1 °F 83% 30.17 in 10.0 mi South 18.4 mph - N/A   Clear
10:53 PM 48.0 °F - 43.0 °F 83% 30.20 in 10.0 mi South 15.0 mph - N/A   Clear
11:53 PM 46.0 °F 41.4 °F 42.1 °F 86% 30.19 in 10.0 mi SE 9.2 mph - N/A   Mostly Cloudy